ARIANE 5 DEB (SYLDA), 32255

Orbit data source: Space-Track

ARIANE 5 DEB (SYLDA), 32255 is space debris in HEO originally from a launch on Fri, 05 Oct 2007 UTC launched from the French Guiana (FRGUI). Debris objects in space refer to the collection of defunct objects orbiting the Earth. Examples of debris include non-operational satellites, rocket bodies, and fragments generated from explosions, collisions, or faulty payload assembly.

Loading next visibility...
Identifier
32255, 2007-044D
Orbit
HEO
Country
Flag of FRFR
Related business
Manufacturer
EADS/Bremen
Mission
Spacecraft
Bus & Motor
SYLDA 5, Unknown motor
Mass
440 kg wet, 440 kg dry
Launch date (UTC)
2007-10-05 (18 years ago)
Launch vehicle
Unknown
Launch site
French Guiana (FRGUI)
Object type
Payload
Rocket body
Debris
Shape & HBR
Cyl, 2.6 m
Radar Cross Section
26.330 m², Large (>1 m²)

Expand to show TLE details & history
Last TLE update: 7 hours ago

TLE from 7 hours ago
0 ARIANE 5 DEB (SYLDA)
1 32255U 07044D   25260.90238427  .00000198  00000-0  18152-2 0  9999
2 32255   3.7433 161.6200 7164727 122.2773 278.1326  2.26749556148315
Epoch: 2025-09-17T21:39Z
TLE epoch observation values (Epoch: 2025-09-17T21:39:26Z)
Latitude
-1.88108°
Longitude
169.4729°
Altitude
26,360.848 km
Speed
2.84 km/s
True Right ascension
08h 45m 36s
True Declination
-1° 52' 43"
Sunlit
Object was in daylight at epoch
Visualization orbit readout
Latitude
Unknown
Longitude
Unknown
Altitude
Unknown
Speed
Unknown
Apparent Right ascension
Unknown
Apparent Declination
Unknown
Sunlit
N/A
Visualization observer readout
Local Sidereal Time
21:22:05
Azimuth
Unknown
Elevation
Unknown
Doppler factor
Unknown
Orbital elements
Apogee altitude
35,639.811 km
Perigee altitude
562.396 km
Semi-major axis
24,479.24 km
Eccentricity
0.71647
Inclination
3.7433°
RAAN
161.62°
Arg. of periapsis
122.2773°
True anomaly
207.40236°
Mean anomaly
278.1326°
Eccentric anomaly
241.91535°
Mean motion
0.56669 °/min
Orbital period
635.27 mins
BSTAR
0.0018152
Loading maneuver chart data...
Computing Atmospheric mass density...
Loading historical data...
Loading historical data...
Loading historical data...
Loading historical data...
Loading historical data...
Loading historical data...
Loading historical data...
Other satellites on launch #44 in the year 2007 (2007-10-05 UTC)

Documentation

Showing up to 5 results
|